Regional Weather Roundup
Issued by NWS

Home | Current Version | Previous Version | Text Only | Print | Product List | Glossary On
Versions: 1 2 3 4 5 6 7 8 9 10 11 12 13 14 15 16 17 18 19 20 21 22 23 24 25 26 27 28 29 30 31 32 33 34 35 36 37 38 39 40 41 42 43 44 45 46 47 48 49 50
000
ASUS45 KABQ 280010
RWRNM
WEATHER ROUNDUP FOR NEW MEXICO
NATIONAL WEATHER SERVICE ALBUQUERQUE NM
500 PM MST FRI FEB 27 2015

NOTE: "FAIR" MEANS FEW OR NO CLOUDS BELOW 12,000 FEET AGL WITH NO
       SIGNIFICANT WEATHER OR OBSTRUCTIONS TO VISION.

      THIS PRODUCT IS RELEASED AS TWO VERSIONS.  ONE VERSION NEAR
      THE TOP OF THE HOUR CONTAINING PRELIMINARY DATA FROM ALBUQUERQUE
      AND OTHER STATIONS.  A FINAL VERSION WITH ADDITIONAL DATA IS
      ISSUED ABOUT 10 MINUTES AFTER THE HOUR.

NMZ501-503-504-510>518-280100-
NORTHWEST PLATEAU/NORTHCENTRAL MOUNTAINS

CITY           SKY/WX    TMP DP  RH WIND       PRES   REMARKS
FARMINGTON     LGT SNOW  32  30  92 E10       29.76F FOG     WCI  24
6HR MIN TEMP:  31; 6HR MAX TEMP:  33; 6HR PCP:  0.13;

LOS ALAMOS     LGT SNOW  17  17 100 S12       29.83S WCI   4
SANTA FE       LGT SNOW  19  14  81 S16       29.86S VSB 1   WCI   4
6HR MIN TEMP:  18; 6HR MAX TEMP:  21; 6HR PCP: TRACE;

TAOS           CLOUDY    21  16  79 CALM      29.83R
ANGEL FIRE     LGT SNOW  24  21  89 W5        29.78R VSB 3/4 WCI  18

$$
NMZ402-403-502-505>509-280100-
WESTCENTRAL MOUNTAINS/SOUTHWEST MOUNTAINS

CITY           SKY/WX    TMP DP  RH WIND       PRES   REMARKS
GALLUP         CLOUDY    37  31  78 CALM      29.75F
6HR MIN TEMP:  32; 6HR MAX TEMP:  37; 6HR PCP:  0.05;

GRANTS         LGT SNOW  25  23  91 SE14G20   29.82S WCI  13
SILVER CITY    SUNNY     50  25  37 S12       29.82F

$$
NMZ407-409-411-412-280100-
SOUTHERN DESERTS

CITY           SKY/WX    TMP DP  RH WIND       PRES   REMARKS
LORDSBURG      FAIR      55  27  33 SE15G24   29.75S
DEMING         SUNNY     54  25  32 E10       29.80F
6HR MIN TEMP:  42; 6HR MAX TEMP:  56;

LAS CRUCES     SUNNY     47  24  41 SE18      29.86S
HOLLOMAN AFB   MOSUNNY   41  23  48 S10       29.90S
ALAMOGORDO     MOSUNNY   41  23  48 S10       29.91F
T OR C         MOSUNNY   50  26  39 S7        29.81S
6HR MIN TEMP:  39; 6HR MAX TEMP:  50;


$$
NMZ519>523-280100-
CENTRAL VALLEYS/CENTRAL HIGHLANDS

CITY           SKY/WX    TMP DP  RH WIND       PRES   REMARKS
ALBUQUERQUE    LGT SNOW  25  23  92 NW9       29.88S VSB 1   WCI  15
6HR MIN TEMP:  25; 6HR MAX TEMP:  28; 6HR PCP:  0.02;

DOUBLE EAGLE   LGT SNOW  21  19  93 N9        29.87F VSB 3/4 WCI  11
MORIARTY ARPT  LGT SNOW  17  13  82 SE9       29.92S WCI   6
6HR MIN TEMP:  17; 6HR MAX TEMP:  19;

CLINES CORNERS LGT SNOW  13   8  81 SE12      29.84F WCI  -1
6HR MIN TEMP:  12; 6HR MAX TEMP:  15; 6HR PCP: TRACE;

BELEN          LGT SNOW  31  27  84 SE7       29.88S WCI  24
6HR MIN TEMP:  28; 6HR MAX TEMP:  32;

SOCORRO          N/A     37  29  75 SE6       29.86S WCI  32
6HR MIN TEMP:  32; 6HR MAX TEMP:  37;


$$
NMZ524>526-539-540-280100-
SOUTHCENTRAL MOUNTAINS

CITY           SKY/WX    TMP DP  RH WIND       PRES   REMARKS
RUIDOSO        FOG       16  14  93 SE8       29.92R VSB<1/4 WCI   5

$$
NMZ527>531-280100-
NORTHEAST HIGHLANDS/NORTHEAST PLAINS

CITY           SKY/WX    TMP DP  RH WIND       PRES   REMARKS
LAS VEGAS      LGT SNOW   9   6  88 S16       29.88R VSB 3/4 WCI  -8
6HR MIN TEMP:   9; 6HR MAX TEMP:  12; 6HR PCP: TRACE;

RATON          LGT SNOW  12   9  87 S9        29.89S FOG     WCI   0
6HR MIN TEMP:  11; 6HR MAX TEMP:  14; 6HR PCP: TRACE;

CLAYTON        LGT SNOW  13   8  81 S21       30.01S WCI  -5
6HR MIN TEMP:  13; 6HR MAX TEMP:  14; 6HR PCP:  0.02;


$$
NMZ532>537-280100-
EASTCENTRAL PLAINS

CITY           SKY/WX    TMP DP  RH WIND       PRES   REMARKS
TUCUMCARI      FLURRIES  16  10  77 S13       30.10S WCI   2
6HR MIN TEMP:  16; 6HR MAX TEMP:  18; 6HR PCP: TRACE;

CANNON AFB     FLURRIES  13   9  85 SE9       30.11S WCI   1
6HR MIN TEMP:  13; 6HR MAX TEMP:  14; 6HR PCP: TRACE;

CLOVIS AIRPORT CLOUDY    12   9  85 SE12      30.12S WCI  -2

$$
NMZ028-029-538-280100-
SOUTHEAST PLAINS

CITY           SKY/WX    TMP DP  RH WIND       PRES   REMARKS
ROSWELL        CLOUDY    24  18  77 SE9       30.11S WCI  14
6HR MIN TEMP:  20; 6HR MAX TEMP:  24;

ARTESIA        CLOUDY    25  21  86 SE12      30.12S WCI  14
CARLSBAD       CLOUDY    26  18  71 SE12      30.12S WCI  16
6HR MIN TEMP:  24; 6HR MAX TEMP:  26;

HOBBS          CLOUDY    19  18  93 E12       30.14S WCI   7


$$



USA.gov is the U.S. government's official web portal to all federal, state and local government web resources and services.